Change the Weather History Date:

Thursday, November 1, 2012

  Actual Average Record
Temperature  
Mean Temperature 53 °F 46 °F  
Max Temperature 59 °F 56 °F 76 °F (1901)
Min Temperature 46 °F 37 °F 12 °F (1935)
Degree Days  
Heating Degree Days 12 19  
Month to date heating degree days 12 19  
Since 1 July heating degree days 494 561  
Cooling Degree Days 0 0  
Month to date cooling degree days 0 0  
Year to date cooling degree days 611 636  
Growing Degree Days 2 (Base 50)    
Moisture  
Dew Point 44 °F    
Average Humidity 72    
Maximum Humidity 86    
Minimum Humidity 57    
Precipitation  
Precipitation 0.04 in 0.04 in 0.61 in (1950)
Month to date precipitation 0.04 0.04  
Year to date precipitation 11.62 9.71  
Snow  
Snow 0.00 in 0.00 in 0.70 in (1991)
Month to date snowfall 0.0 0.0  
Year to date snowfall 5.9 7.8  
Since 1 July snowfall T 0.1  
Snow Depth 0.00 in    
Sea Level Pressure  
Sea Level Pressure 29.89 in    
Wind  
Wind Speed 7 mph (SSW)    
Max Wind Speed 21 mph    
Max Gust Speed 26 mph    
Visibility 10 miles    
Events Rain    
T = Trace of Precipitation, MM = Missing Value Source: NWS Daily Summary

Daily Weather History Graph

Daily Weather History Graph

Search for Another Location

Airport or City:

Trip Planner

Search our weather history database for the weather conditions in past years. The results will help you decide how hot, cold, wet, or windy it might be!

Date:

Astronomy

Nov. 01, 2012 Rise Set
Actual Time 7:36 AM PDT 5:41 PM PDT
Civil Twilight 7:04 AM PDT 6:12 PM PDT
Nautical Twilight 6:29 AM PDT 6:47 PM PDT
Astronomical Twilight 5:55 AM PDT 7:21 PM PDT
Moon 7:35 PM PDT 10:19 AM PDT
Length of Visible Light 11h 07m
Length of Day
10h 05m
Waning Gibbous, 92% of the Moon is Illuminated
Nov 1
Waning Gibbous
Nov 6
Last Quarter
Nov 13
New
Nov 20
First Quarter
Nov 28
Full

Hourly Weather History & Observations

Time (PDT) Temp. Windchill Dew Point Humidity Pressure Visibility Wind Dir Wind Speed Gust Speed Precip Events Conditions
12:53 AM 48.0 °F - 43.0 °F 83% 29.76 in 10.0 mi Calm Calm - N/A   Clear
1:53 AM 51.8 °F - 42.8 °F 71% 29.79 in 10.0 mi Calm Calm - N/A   Clear
2:53 AM 46.0 °F 42.5 °F 42.1 °F 86% 29.78 in 10.0 mi ESE 6.9 mph - N/A   Clear
3:53 AM 48.0 °F - 43.0 °F 83% 29.79 in 10.0 mi SE 5.8 mph - N/A   Overcast
4:53 AM 51.8 °F - 41.0 °F 67% 29.81 in 10.0 mi South 6.9 mph - N/A   Partly Cloudy
5:53 AM 50.0 °F - 41.0 °F 71% 29.81 in 10.0 mi South 8.1 mph - N/A   Mostly Cloudy
6:53 AM 53.1 °F - 39.0 °F 59% 29.81 in 10.0 mi SW 5.8 mph - N/A   Partly Cloudy
7:53 AM 48.0 °F - 37.9 °F 68% 29.83 in 10.0 mi Calm Calm - N/A   Clear
8:53 AM 52.0 °F - 39.9 °F 63% 29.84 in 10.0 mi South 11.5 mph 17.3 mph N/A   Mostly Cloudy
9:53 AM 55.0 °F - 42.1 °F 62% 29.84 in 10.0 mi South 11.5 mph - N/A   Mostly Cloudy
10:53 AM 57.9 °F - 42.1 °F 56% 29.85 in 10.0 mi SSE 9.2 mph - N/A   Mostly Cloudy
11:31 AM 57.2 °F - 42.8 °F 59% 29.88 in 10.0 mi SW 15.0 mph 24.2 mph 0.00 in Rain Light Rain
11:53 AM 54.0 °F - 45.0 °F 72% 29.88 in 6.0 mi SW 12.7 mph - 0.01 in Rain Light Rain
12:53 PM 53.1 °F - 48.0 °F 83% 29.86 in 10.0 mi ESE 5.8 mph - 0.03 in Rain Light Rain
1:53 PM 54.0 °F - 46.9 °F 77% 29.87 in 10.0 mi ESE 4.6 mph - 0.00 in   Overcast
2:53 PM 57.0 °F - 46.0 °F 67% 29.88 in 10.0 mi WSW 10.4 mph - 0.00 in   Overcast
3:53 PM 55.9 °F - 46.0 °F 69% 29.91 in 10.0 mi West 9.2 mph - N/A   Overcast
4:53 PM 54.0 °F - 48.9 °F 83% 29.92 in 10.0 mi West 3.5 mph - 0.00 in   Overcast
5:53 PM 53.1 °F - 46.9 °F 80% 29.94 in 10.0 mi WSW 8.1 mph - N/A   Overcast
6:53 PM 52.0 °F - 46.0 °F 80% 29.96 in 10.0 mi SW 5.8 mph - N/A   Mostly Cloudy
7:53 PM 51.1 °F - 46.0 °F 83% 29.98 in 10.0 mi South 5.8 mph - 0.00 in   Overcast
8:53 PM 50.0 °F - 46.0 °F 86% 30.00 in 10.0 mi South 4.6 mph - N/A   Overcast
9:53 PM 51.1 °F - 46.0 °F 83% 30.01 in 10.0 mi SSE 5.8 mph - N/A   Overcast
10:53 PM 50.0 °F - 45.0 °F 83% 30.03 in 10.0 mi South 5.8 mph - N/A   Overcast
11:53 PM 50.0 °F - 44.1 °F 80% 30.04 in 10.0 mi South 8.1 mph - N/A   Overcast